TimeCDT,TemperatureF,Dew PointF,Humidity,Sea Level PressureIn,VisibilityMPH,Wind Direction,Wind SpeedMPH,Gust SpeedMPH,PrecipitationIn,Events,Conditions,WindDirDegrees,DateUTC
12:15 AM,49.5,38.5,66,30.09,10.0,North,8.1,-,N/A,,Clear,350,2013-03-11 05:15:00
12:35 AM,49.1,38.3,66,30.10,10.0,North,9.2,-,N/A,,Clear,350,2013-03-11 05:35:00
12:55 AM,49.1,37.4,64,30.09,10.0,North,10.4,-,N/A,,Clear,350,2013-03-11 05:55:00
1:15 AM,48.4,37.2,65,30.09,10.0,North,9.2,-,N/A,,Clear,350,2013-03-11 06:15:00
1:35 AM,48.2,37.0,65,30.07,10.0,NNW,13.8,-,N/A,,Clear,330,2013-03-11 06:35:00
2:15 AM,47.3,36.5,66,30.09,10.0,North,4.6,-,N/A,,Clear,350,2013-03-11 07:15:00
2:35 AM,47.3,37.0,68,30.08,10.0,North,5.8,-,N/A,,Clear,360,2013-03-11 07:35:00
2:55 AM,48.6,36.7,64,30.08,10.0,North,5.8,-,N/A,,Clear,360,2013-03-11 07:55:00
3:15 AM,48.6,36.9,64,30.07,10.0,North,8.1,-,N/A,,Clear,350,2013-03-11 08:15:00
3:35 AM,48.4,37.0,65,30.05,10.0,NNW,10.4,-,N/A,,Clear,340,2013-03-11 08:35:00
3:55 AM,48.2,37.4,66,30.05,10.0,NNW,8.1,-,N/A,,Clear,340,2013-03-11 08:55:00
4:15 AM,48.4,37.4,66,30.06,10.0,North,5.8,-,N/A,,Clear,350,2013-03-11 09:15:00
4:35 AM,48.6,37.2,65,30.09,10.0,East,3.5,-,N/A,,Clear,80,2013-03-11 09:35:00
4:55 AM,48.0,37.4,67,30.08,10.0,Calm,Calm,-,N/A,,Clear,0,2013-03-11 09:55:00
5:15 AM,47.7,37.8,69,30.08,10.0,Calm,Calm,-,N/A,,Clear,0,2013-03-11 10:15:00
5:35 AM,47.3,38.8,72,30.08,10.0,Calm,Calm,-,N/A,,Clear,0,2013-03-11 10:35:00
5:55 AM,46.6,39.0,75,30.09,10.0,Calm,Calm,-,N/A,,Clear,0,2013-03-11 10:55:00
6:15 AM,45.9,37.4,72,30.10,10.0,North,4.6,-,N/A,,Clear,350,2013-03-11 11:15:00
6:35 AM,44.6,36.5,73,30.10,10.0,NNW,3.5,-,N/A,,Clear,340,2013-03-11 11:35:00
6:55 AM,44.6,36.0,72,30.11,10.0,NNW,5.8,-,N/A,,Clear,340,2013-03-11 11:55:00
7:15 AM,43.3,35.2,73,30.12,10.0,NNW,3.5,-,N/A,,Clear,340,2013-03-11 12:15:00
7:35 AM,43.0,37.2,80,30.13,10.0,Calm,Calm,-,N/A,,Clear,0,2013-03-11 12:35:00
7:55 AM,41.7,37.2,84,30.13,10.0,Calm,Calm,-,N/A,,Clear,0,2013-03-11 12:55:00
8:15 AM,42.3,38.3,86,30.14,10.0,NW,3.5,-,N/A,,Clear,310,2013-03-11 13:15:00
8:35 AM,46.0,38.3,74,30.14,10.0,NNW,4.6,-,N/A,,Clear,330,2013-03-11 13:35:00
8:55 AM,48.7,36.7,63,30.15,10.0,NNW,9.2,-,N/A,,Clear,330,2013-03-11 13:55:00
9:15 AM,50.9,35.4,55,30.15,10.0,NNW,10.4,-,N/A,,Clear,330,2013-03-11 14:15:00
9:35 AM,50.5,34.2,53,30.16,10.0,NNW,11.5,-,N/A,,Clear,330,2013-03-11 14:35:00
9:55 AM,52.5,31.8,45,30.17,10.0,NW,13.8,23.0,N/A,,Clear,320,2013-03-11 14:55:00
10:15 AM,53.6,30.0,41,30.17,10.0,NW,16.1,21.9,N/A,,Clear,320,2013-03-11 15:15:00
10:35 AM,54.9,29.8,38,30.16,10.0,NNW,15.0,-,N/A,,Clear,330,2013-03-11 15:35:00
10:55 AM,55.4,28.0,35,30.16,10.0,North,13.8,19.6,N/A,,Clear,350,2013-03-11 15:55:00
11:15 AM,56.5,26.1,31,30.16,10.0,NW,17.3,23.0,N/A,,Clear,320,2013-03-11 16:15:00
11:35 AM,57.2,24.8,29,30.16,10.0,NW,19.6,24.2,N/A,,Clear,320,2013-03-11 16:35:00
11:55 AM,57.9,24.4,28,30.15,10.0,WNW,17.3,24.2,N/A,,Clear,300,2013-03-11 16:55:00
12:15 PM,58.3,24.1,27,30.14,10.0,NW,15.0,20.7,N/A,,Clear,320,2013-03-11 17:15:00
12:35 PM,60.3,24.1,25,30.14,10.0,NNW,16.1,21.9,N/A,,Clear,330,2013-03-11 17:35:00
12:55 PM,59.9,23.4,25,30.13,10.0,NW,18.4,24.2,N/A,,Clear,320,2013-03-11 17:55:00
1:15 PM,61.0,20.3,21,30.12,10.0,NW,13.8,23.0,N/A,,Clear,310,2013-03-11 18:15:00
1:35 PM,60.8,21.6,22,30.11,10.0,WNW,15.0,21.9,N/A,,Clear,300,2013-03-11 18:35:00
1:55 PM,61.7,19.4,20,30.10,10.0,NW,20.7,27.6,N/A,,Clear,310,2013-03-11 18:55:00
2:15 PM,61.3,19.8,20,30.09,10.0,NW,20.7,27.6,N/A,,Clear,320,2013-03-11 19:15:00
2:35 PM,61.5,20.1,20,30.08,10.0,NNW,16.1,27.6,N/A,,Clear,330,2013-03-11 19:35:00
2:55 PM,62.6,18.1,18,30.07,10.0,NNW,19.6,26.5,N/A,,Clear,330,2013-03-11 19:55:00
3:15 PM,63.7,19.8,19,30.06,10.0,NW,24.2,27.6,N/A,,Clear,310,2013-03-11 20:15:00
3:35 PM,63.3,18.9,18,30.05,10.0,NW,19.6,25.3,N/A,,Clear,320,2013-03-11 20:35:00
3:55 PM,64.0,17.8,17,30.03,10.0,NW,17.3,26.5,N/A,,Clear,320,2013-03-11 20:55:00
4:15 PM,63.9,16.9,16,30.03,10.0,NW,13.8,26.5,N/A,,Clear,320,2013-03-11 21:15:00
4:35 PM,63.7,16.5,16,30.03,10.0,NNW,19.6,26.5,N/A,,Clear,340,2013-03-11 21:35:00
4:55 PM,63.7,16.7,16,30.03,10.0,NNW,17.3,23.0,N/A,,Clear,330,2013-03-11 21:55:00
5:15 PM,63.7,17.1,17,30.03,10.0,NW,17.3,24.2,N/A,,Clear,320,2013-03-11 22:15:00
5:35 PM,63.3,17.1,17,30.02,10.0,NW,13.8,20.7,N/A,,Clear,320,2013-03-11 22:35:00
6:15 PM,62.6,19.4,19,30.03,10.0,NW,16.1,-,N/A,,Clear,310,2013-03-11 23:15:00
6:35 PM,61.7,20.3,20,30.03,10.0,NW,11.5,-,N/A,,Clear,310,2013-03-11 23:35:00
6:55 PM,60.8,19.6,20,30.03,10.0,NW,11.5,17.3,N/A,,Clear,320,2013-03-11 23:55:00
7:15 PM,58.1,22.1,25,30.03,10.0,North,8.1,-,N/A,,Clear,350,2013-03-12 00:15:00
7:35 PM,55.4,21.9,27,30.04,10.0,North,6.9,-,N/A,,Clear,350,2013-03-12 00:35:00
7:55 PM,53.1,22.3,30,30.05,10.0,North,5.8,-,N/A,,Clear,350,2013-03-12 00:55:00
8:15 PM,51.4,22.8,33,30.05,10.0,North,4.6,-,N/A,,Clear,360,2013-03-12 01:15:00
8:35 PM,50.9,22.3,33,30.06,10.0,Calm,Calm,-,N/A,,Clear,0,2013-03-12 01:35:00
8:55 PM,52.0,22.1,31,30.07,10.0,Calm,Calm,-,N/A,,Clear,0,2013-03-12 01:55:00
9:35 PM,49.8,23.7,36,30.09,10.0,NNE,3.5,-,N/A,,Clear,20,2013-03-12 02:35:00
9:55 PM,49.1,23.9,37,30.10,10.0,Calm,Calm,-,N/A,,Clear,0,2013-03-12 02:55:00
10:15 PM,48.0,24.8,40,30.11,10.0,Calm,Calm,-,N/A,,Clear,0,2013-03-12 03:15:00
10:35 PM,47.3,27.7,47,30.11,10.0,Calm,Calm,-,N/A,,Clear,0,2013-03-12 03:35:00
10:55 PM,46.8,25.2,43,30.11,10.0,East,3.5,-,N/A,,Clear,80,2013-03-12 03:55:00
11:15 PM,43.3,28.4,56,30.11,10.0,Calm,Calm,-,N/A,,Clear,0,2013-03-12 04:15:00
11:35 PM,44.8,27.7,51,30.11,10.0,Calm,Calm,-,N/A,,Clear,0,2013-03-12 04:35:00
11:55 PM,42.4,29.8,61,30.11,10.0,Calm,Calm,-,N/A,,Clear,0,2013-03-12 04:55:00